sat.trackr.live / text

‹ back to catalog

STARLINK-34570

NORAD 64860 · 2025-152U

PAYLOAD ACTIVE UNKNOWN

§ Identity

Operator
Country
US
Launch date
2025-07-19
Launch site
AFWTR
Launch vehicle
Mass (kg)
RCS (m²)

Purposes: comms

External: N2YO · Heavens-Above · Gunter

§ Orbital elements

Epoch: 2026-09-20T14:12:24.187104Z

Period
93.91 min
Inclination
97.2854°
Eccentricity
0.0002009
Mean motion
15.33456292 rev/d
Perigee alt
464.1 km
Apogee alt
466.9 km
Semi-major
6,843.6 km
B*
3.3939e-4
RAAN
114.0917°
Arg perigee
91.3284°
Mean anomaly
268.8189°
Rev number
6,483

§ Raw data

STARLINK-345701 64860U 25152U   26263.59194661  .00010902  00000+0  33939-3 0  99902 64860  97.2854 114.0917 0002009  91.3284 268.8189 15.33456292 64835

JSON: /api/v1/satellites/64860 · /tle

For live sub-satellite position, see the globe view (requires WebGL).

§ Visibility from observer

Set your observer location to see the next 7 days of passes ≥ 10°. The values pass through the URL so the page stays shareable.

No JS? Fill the form by hand. The geolocation button needs JavaScript.